Location: Ashtead
(51.3000°N, 0.3000°W)
Time: 20:00:55
(UTC+00:00)

S3M - Pass Details

Date: 26 September 2023
Orbit: 948 x 1005 km, 83.0° (Epoch: 09 December)

Event Time Altitude Azimuth Distance (km) Brightness Sun altitude
Rises 03:29:13 0° 349° (NNW) 3,747 7.3 -22.4°
Reaches altitude 10° 03:31:46 10° 348° (NNW) 2,792 6.6 -22.1°
Maximum altitude 03:38:11 78° 263° (W) 1,027 3.9 -21.2°
Drops below altitude 10° 03:44:30 10° 178° (S) 2,752 6.1 -20.3°
Sets 03:47:00 0° 178° (S) 3,689 6.8 -20.0°
